Weather History for Ithaca, NY

Change the Weather History Date:

Tuesday, May 27, 2014

  Actual Average Record
Temperature  
Mean Temperature 70 °F -  
Max Temperature 83 °F 68 °F 87 °F (1939)
Min Temperature 59 °F 45 °F 29 °F (1969)
Cooling Degree Days 6    
Growing Degree Days 20 (Base 50)    
Moisture  
Dew Point 60 °F    
Average Humidity 69    
Maximum Humidity 93    
Minimum Humidity 49    
Precipitation  
Precipitation 0.00 in - - ()
Sea Level Pressure  
Sea Level Pressure 29.87 in    
Wind  
Wind Speed 4 mph (West)    
Max Wind Speed 15 mph    
Max Gust Speed 18 mph    
Visibility 10 miles    
Events Rain , Thunderstorm    
Averages and records for this station are not official NWS values.
T = Trace of Precipitation, MM = Missing Value Source: NWS Daily Summary

Daily Weather History Graph

Daily Weather History Graph

Search for Another Location

Airport:

Trip Planner

Search our weather history database for the weather conditions in past years. The results will help you decide how hot, cold, wet, or windy it might be!

Date:

Astronomy

May. 27, 2014 Rise Set
Actual Time 5:34 AM EDT 8:32 PM EDT
Civil Twilight 5:00 AM EDT 9:06 PM EDT
Nautical Twilight 4:17 AM EDT 9:48 PM EDT
Astronomical Twilight 3:27 AM EDT 10:39 PM EDT
Moon 4:57 AM EDT (5/27) 7:30 PM EDT (5/27)
Length of Visible Light 16h 05m
Length of Day
14h 58m
Waning Crescent, 1% of the Moon is Illuminated
May 27
Waning Crescent
May 28
New
Jun 5
First Quarter
Jun 13
Full
Jun 19
Last Quarter

Hourly Weather History & Observations

Time (EDT) Temp. Heat Index Dew Point Humidity Pressure Visibility Wind Dir Wind Speed Gust Speed Precip Events Conditions
12:56 AM 66.9 °F - 46.9 °F 49% 29.93 in 10.0 mi WNW 4.6 mph - N/A   Clear
1:56 AM 65.8 °F - 48.9 °F 54% 29.92 in 10.0 mi Calm Calm - N/A   Overcast
2:56 AM 64.9 °F - 52.0 °F 63% 29.92 in 10.0 mi Calm Calm - 0.00 in Rain Light Rain
3:56 AM 61.9 °F - 54.9 °F 78% 29.91 in 10.0 mi Calm Calm - 0.00 in   Overcast
4:56 AM 61.0 °F - 55.9 °F 83% 29.90 in 10.0 mi Calm Calm - N/A   Overcast
5:56 AM 59.0 °F - 54.9 °F 86% 29.90 in 10.0 mi Calm Calm - N/A   Overcast
6:27 AM 60.8 °F - 55.4 °F 82% 29.91 in 10.0 mi East 3.5 mph - N/A   Mostly Cloudy
6:56 AM 61.9 °F - 54.9 °F 78% 29.90 in 10.0 mi SE 3.5 mph - N/A   Mostly Cloudy
7:56 AM 70.0 °F - 54.9 °F 59% 29.90 in 10.0 mi SW 3.5 mph - N/A   Mostly Cloudy
8:56 AM 74.8 °F - 55.9 °F 52% 29.89 in 10.0 mi SW 5.8 mph - N/A   Mostly Cloudy
9:56 AM 75.9 °F - 57.9 °F 54% 29.89 in 10.0 mi SW 5.8 mph - N/A   Mostly Cloudy
10:56 AM 77.9 °F - 59.0 °F 52% 29.88 in 10.0 mi SW 6.9 mph - N/A   Mostly Cloudy
11:56 AM 79.0 °F - 61.0 °F 54% 29.88 in 10.0 mi WNW 6.9 mph - N/A   Mostly Cloudy
12:56 PM 81.0 °F 82.2 °F 63.0 °F 54% 29.86 in 10.0 mi WNW 9.2 mph - N/A   Scattered Clouds
1:56 PM 82.9 °F 84.0 °F 63.0 °F 51% 29.83 in 10.0 mi WNW 12.7 mph - N/A   Scattered Clouds
2:56 PM 82.9 °F 84.0 °F 63.0 °F 51% 29.82 in 10.0 mi NW 15.0 mph 18.4 mph N/A   Scattered Clouds
3:56 PM 79.9 °F - 61.9 °F 54% 29.81 in 10.0 mi NW 9.2 mph - N/A   Mostly Cloudy
4:56 PM 77.9 °F - 64.9 °F 64% 29.81 in 10.0 mi WSW 8.1 mph - N/A   Mostly Cloudy
5:56 PM 72.9 °F - 64.9 °F 76% 29.82 in 10.0 mi SW 11.5 mph - N/A   Mostly Cloudy
7:56 PM 70.0 °F - 64.9 °F 84% 29.83 in 10.0 mi Calm Calm - N/A   Mostly Cloudy
8:56 PM 70.0 °F - 64.9 °F 84% 29.83 in 10.0 mi Calm Calm - N/A   Overcast
9:56 PM 68.9 °F - 64.9 °F 87% 29.83 in 10.0 mi Calm Calm - N/A   Overcast
10:56 PM 66.9 °F - 64.9 °F 93% 29.83 in 10.0 mi Calm Calm - N/A Thunderstorm Mostly Cloudy
11:15 PM 69.8 °F - 66.2 °F 88% 29.85 in 10.0 mi SW 5.8 mph - N/A Thunderstorm Mostly Cloudy
11:46 PM 69.8 °F - 64.4 °F 83% 29.85 in 10.0 mi West 8.1 mph - 0.00 in Rain Light Rain
11:56 PM 68.9 °F - 64.9 °F 87% 29.83 in 10.0 mi West 5.8 mph - 0.00 in Rain Light Rain